Wind_Speed
7 6 5 5 4 3 4 5 6 8 9 9 9 8 9 8 5 4 5 6 6 6 7 8 8 9 10 10 11 11 12 12 13 13 13 13 12 11 9 7 6 4 4 3 4 5 6 6 8
5 5 5 4 3 3 3 4 6 7 7 8 8 7 8 8 5 3 4 4 5 5 6 6 7 7 8 8 9 9 10 10 11 12 12 13 13 12 11 9 7 4 3 2 2 4 5 6 7
4 4 4 4 3 2 3 4 5 6 6 7 6 6 7 6 4 3 3 3 4 4 5 5 6 6 6 6 6 7 7 8 9 10 11 12 12 12 12 10 8 6 3 1 1 2 4 5 6
4 4 4 3 2 2 3 4 5 6 6 5 6 6 6 5 3 2 2 2 3 3 3 4 4 4 4 4 4 4 5 6 7 7 9 10 11 12 12 11 9 7 5 2 0 2 3 4 6
2 3 4 3 2 3 3 4 5 6 5 5 5 5 5 4 2 1 1 2 3 3 3 2 3 3 3 2 2 2 3 3 4 5 6 7 9 10 11 11 10 8 6 4 2 1 3 4 5
2 3 5 3 3 3 3 4 4 4 3 4 4 4 4 4 2 1 1 2 3 3 3 2 2 1 1 1 0 1 2 3 4 4 5 6 6 7 9 9 9 9 7 6 4 2 2 3 4
5 6 5 5 5 5 5 5 5 4 3 3 4 4 4 3 3 2 1 1 2 3 4 3 3 3 2 2 2 2 2 3 4 5 5 6 6 6 7 7 8 8 8 7 6 5 4 2 2
7 7 7 7 6 6 7 7 7 6 6 5 5 5 4 2 2 2 2 1 2 3 5 5 5 5 4 4 4 4 4 4 5 6 7 8 7 7 6 6 7 7 7 7 7 7 6 4 3
9 9 8 8 7 8 9 8 9 9 8 8 7 7 6 4 2 1 2 3 3 4 5 6 6 6 6 6 6 6 6 6 7 8 9 10 10 9 8 7 7 7 7 7 7 7 7 6 4
12 11 10 10 10 10 10 11 12 12 11 10 10 9 8 8 6 4 3 5 6 6 6 7 7 7 7 7 7 7 7 8 8 9 10 11 12 12 11 10 9 8 8 8 7 7 7 6 5
13 13 13 12 12 12 13 13 15 15 15 13 13 12 11 11 11 9 7 7 7 8 9 8 8 9 8 8 8 8 9 9 9 10 11 13 13 13 13 13 12 11 10 9 8 8 7 7 6
13 13 14 15 16 16 17 17 17 18 19 18 17 16 15 15 14 14 13 11 10 10 11 11 11 11 11 10 10 10 10 11 11 12 13 13 14 15 15 15 14 14 13 11 10 10 8 7 6
14 14 15 17 19 19 20 20 20 20 21 22 21 21 20 19 18 18 18 16 15 15 14 14 14 14 14 14 13 13 12 12 13 13 14 15 16 16 16 16 16 16 15 14 13 12 11 9 8
17 17 18 20 21 22 22 22 23 22 23 23 24 24 23 23 22 22 22 20 20 19 18 17 17 18 17 18 17 16 16 16 15 15 15 15 16 17 18 17 18 18 17 16 16 15 13 12 11
20 21 22 24 24 24 24 25 25 25 25 25 26 26 26 26 25 25 25 24 23 22 21 21 20 20 19 19 19 19 19 19 18 17 16 16 16 17 18 18 19 20 19 19 18 18 16 15 14
23 23 24 26 27 27 27 27 27 27 28 28 29 29 29 29 29 28 28 27 27 26 25 25 24 23 22 22 21 21 21 21 20 19 18 18 18 17 17 18 19 20 21 21 20 20 19 18 17
24 25 26 27 28 28 28 29 29 30 31 32 32 33 34 34 34 33 32 31 30 30 29 28 27 26 25 25 24 23 23 23 22 22 21 20 19 19 19 19 20 21 22 22 21 22 21 21 20
24 25 26 27 27 28 29 31 31 32 33 35 36 36 37 37 37 37 37 36 35 34 34 33 31 30 28 27 26 25 25 25 25 26 25 23 22 22 22 21 21 21 22 22 22 22 23 23 23
22 23 24 26 27 28 30 31 33 35 37 39 40 39 39 40 39 39 39 39 38 38 38 37 35 34 33 31 30 29 29 29 29 29 30 28 26 24 24 23 22 22 22 22 23 23 24 25 24
23 24 24 25 27 29 31 33 35 38 40 41 41 41 41 41 40 40 40 40 40 41 40 40 39 37 36 35 34 33 33 33 33 32 32 31 29 27 25 25 24 23 22 22 23 24 24 26 26
22 22 22 23 25 28 31 33 36 38 40 42 43 44 44 43 42 41 41 41 41 42 42 42 41 40 39 37 36 36 35 35 35 33 33 32 31 30 28 27 25 24 23 23 23 24 25 26 27
20 22 22 24 25 27 30 34 35 37 39 41 42 43 44 43 43 41 41 41 41 41 42 42 41 40 39 38 38 37 36 36 36 36 35 32 32 31 30 29 28 27 25 24 23 23 25 27 28
20 21 22 23 25 26 28 31 33 34 35 37 38 40 40 40 40 39 38 38 38 38 39 39 40 39 39 38 37 37 36 35 35 35 33 32 31 31 32 31 29 29 28 26 25 24 26 28 29
19 20 21 22 22 23 23 25 27 27 29 31 33 35 35 34 35 36 35 36 35 34 35 36 37 37 37 36 36 35 34 33 33 33 33 33 33 32 32 31 31 30 28 26 25 25 25 27 30
19 19 19 19 19 19 19 21 22 23 24 25 26 28 30 32 32 32 34 34 33 32 32 32 33 34 34 34 34 33 33 32 32 33 33 33 34 34 34 33 32 30 27 26 26 27 27 28 29
18 17 17 16 17 16 17 17 19 20 21 21 20 20 22 25 27 26 26 28 29 30 30 31 30 32 33 33 33 33 33 34 34 34 34 34 34 35 34 34 33 32 31 29 28 28 27 28 30
17 16 16 15 15 14 14 15 16 17 16 17 17 17 15 16 17 21 22 23 23 24 27 28 29 30 31 31 31 32 33 33 34 34 34 35 35 35 34 34 33 31 30 29 28 29 29 29 29
16 16 16 15 15 14 12 13 13 12 12 12 13 12 12 12 13 13 13 16 17 19 22 23 26 27 28 28 28 29 30 31 32 32 32 32 31 32 32 31 30 30 29 29 29 29 29 29 28
17 17 17 16 15 15 13 14 14 14 13 13 12 10 10 9 9 9 9 9 10 12 15 17 19 21 21 22 22 24 25 26 26 26 26 26 26 26 25 25 25 25 25 25 26 28 28 27 27
18 18 18 19 18 17 16 17 17 17 16 15 14 12 11 11 10 8 6 6 4 5 6 8 11 13 14 15 16 17 17 17 18 17 17 16 17 17 16 17 18 20 19 19 21 22 22 23 22
Wind_Direction
71 64 51 38 26 21 11 27 39 45 52 53 49 40 39 46 59 80 89 101 96 93 96 98 95 87 79 74 70 65 61 58 55 52 51 50 50 49 50 57 71 91 112 137 155 167 177 181 188
70 58 37 10 3 5 12 29 38 40 43 50 50 41 38 47 50 64 97 112 109 102 103 104 103 97 88 80 74 68 63 59 55 52 50 49 48 47 46 46 50 65 90 121 156 180 193 201 202
50 46 18 341 332 356 13 27 40 44 36 37 38 38 37 44 39 57 101 122 126 119 114 112 110 106 97 87 78 71 65 59 54 51 50 48 47 46 46 45 44 46 56 94 168 192 206 214 217
37 15 349 333 355 17 23 34 51 50 38 33 32 32 36 39 42 59 109 138 145 141 129 123 119 115 108 98 85 74 64 54 47 44 44 44 45 45 44 43 43 42 40 37 236 225 229 229 230
58 332 303 311 355 27 27 23 43 54 36 28 29 25 35 41 43 54 142 157 171 172 158 143 135 127 121 110 89 67 50 39 30 27 30 34 38 42 42 41 40 38 34 26 358 268 252 248 244
200 265 288 300 333 355 10 10 18 44 32 17 11 11 30 37 38 20 199 181 190 202 200 197 184 172 163 150 113 25 12 6 2 2 6 13 21 28 33 33 32 30 27 22 12 347 294 267 257
220 246 271 291 309 323 340 342 342 350 5 353 348 352 12 22 40 12 320 214 213 224 223 224 228 232 239 249 264 289 314 331 337 338 336 340 348 1 10 16 19 19 18 16 13 8 358 329 284
228 245 268 289 296 303 311 313 315 321 328 327 330 331 332 346 29 7 321 276 232 236 239 238 242 247 256 264 271 279 293 307 315 319 319 319 322 327 337 347 354 0 2 4 4 5 6 3 343
238 239 251 268 280 286 291 295 299 308 312 313 312 310 305 301 297 313 304 290 266 251 250 252 253 257 264 271 276 280 286 295 301 303 304 306 308 309 309 315 323 333 340 347 352 356 359 2 2
246 248 254 263 267 270 283 290 294 299 301 298 297 291 288 284 275 258 264 281 282 271 261 259 259 262 266 271 275 279 283 289 294 295 296 296 298 299 298 298 300 306 315 325 332 339 346 351 355
255 257 257 260 262 268 279 283 289 292 290 287 285 281 279 278 275 269 261 263 274 279 276 269 264 263 264 267 273 279 283 286 289 290 290 291 291 292 291 290 289 291 297 304 310 316 325 334 339
259 261 263 264 266 271 277 277 279 282 284 284 283 280 277 273 272 270 265 259 258 264 269 273 273 272 271 269 271 276 280 282 284 285 285 285 286 286 285 286 286 284 285 290 294 297 301 308 316
257 261 264 265 265 267 270 272 274 276 279 281 281 280 278 273 270 269 265 261 257 254 256 260 265 268 270 271 272 274 277 279 281 282 282 282 282 282 281 281 281 280 278 280 284 286 287 289 293
258 258 258 259 261 265 268 271 273 274 274 276 277 277 276 273 271 268 266 263 260 256 254 253 257 260 264 267 269 273 277 278 279 281 281 280 279 280 279 277 275 274 273 273 275 278 280 281 283
263 263 264 264 265 267 269 269 270 270 269 270 270 269 270 271 271 270 267 264 263 260 258 257 258 258 258 262 266 272 276 277 278 279 279 278 277 276 276 275 274 273 272 271 272 274 275 274 273
271 271 271 271 271 269 267 268 268 266 266 266 264 263 265 267 267 267 265 264 264 264 261 258 257 257 257 260 264 267 271 274 276 276 276 276 275 274 272 271 271 271 272 270 270 270 271 270 269
277 277 275 274 273 272 270 269 266 265 264 263 261 261 262 264 264 263 264 265 264 265 264 262 260 258 256 257 259 262 266 269 272 273 272 272 272 273 272 270 268 267 266 266 267 267 267 267 267
280 280 280 279 278 276 275 273 269 266 264 263 263 263 264 264 265 265 265 266 265 264 265 265 265 263 261 259 258 261 264 266 268 271 271 269 269 271 272 271 269 268 266 265 265 266 264 264 265
282 282 283 283 282 279 276 274 271 268 268 269 268 268 268 266 266 266 266 264 263 262 262 263 264 264 265 264 263 263 264 266 267 269 272 270 266 267 268 268 269 268 267 265 266 266 264 261 261
288 288 287 286 285 281 279 276 274 272 271 270 270 271 270 268 267 266 264 262 261 261 261 261 261 261 263 263 265 265 265 266 266 269 270 270 268 264 263 264 265 265 266 268 267 267 266 261 260
297 295 293 290 287 283 282 280 278 276 274 272 271 271 271 269 267 264 261 259 258 259 259 259 260 260 260 261 262 263 263 265 267 267 266 268 267 265 261 258 263 263 263 267 269 267 266 264 262
302 301 298 296 291 285 281 279 278 276 274 272 271 271 269 268 266 261 260 258 256 256 256 257 258 259 260 259 260 261 262 263 265 266 266 266 264 266 263 258 259 262 262 265 269 270 266 264 263
308 305 303 301 296 290 286 282 279 276 272 271 272 272 270 268 265 261 259 256 254 252 253 255 256 257 259 259 258 259 259 261 263 265 266 269 269 270 267 264 263 264 264 264 268 270 269 265 262
314 311 309 306 303 297 292 288 288 284 279 276 274 274 272 269 266 262 259 255 253 252 252 252 254 254 256 257 258 258 258 258 260 264 270 271 272 273 272 275 271 268 266 267 269 269 270 266 263
324 321 319 317 314 309 303 298 295 294 289 287 283 276 273 272 271 268 262 260 256 253 252 252 253 252 253 254 255 256 257 258 261 264 268 271 272 275 274 276 274 272 269 267 268 268 268 265 263
336 333 331 328 325 321 316 309 305 300 297 295 295 292 286 280 274 272 268 264 260 255 255 254 255 253 252 253 255 256 258 260 262 266 269 271 271 271 271 270 270 270 270 267 266 266 265 263 260
347 345 342 343 340 335 331 327 316 312 311 306 309 313 306 303 290 279 273 267 265 262 258 256 256 255 253 254 256 257 260 262 265 268 269 270 270 270 270 267 266 266 266 265 264 264 262 259 257
360 360 360 360 356 351 346 347 347 339 338 332 326 326 326 320 312 301 288 273 268 267 261 258 258 257 255 256 259 261 263 265 267 270 271 270 270 272 270 267 266 265 264 262 262 262 260 259 256
14 13 14 16 14 13 15 15 15 16 14 7 359 354 347 342 335 319 310 293 279 268 261 260 259 258 257 260 263 265 266 268 270 270 271 270 270 270 268 264 263 263 261 261 259 258 256 253 250
25 25 28 31 31 33 35 35 36 35 32 29 26 24 16 8 4 354 345 333 309 287 273 261 258 255 257 261 266 268 270 270 269 268 270 270 269 266 265 261 258 260 255 254 253 250 249 249 249
Height
5923 5923 5923 5924 5925 5924 5923 5923 5922 5922 5922 5921 5920 5919 5919 5919 5919 5921 5919 5917 5917 5918 5917 5917 5917 5917 5917 5917 5916 5916 5915 5914 5913 5912 5911 5910 5909 5908 5907 5907 5907 5906 5906 5906 5906 5906 5906 5906 5907
5924 5924 5925 5926 5925 5924 5924 5923 5922 5922 5922 5922 5921 5921 5920 5920 5918 5918 5918 5918 5918 5918 5919 5919 5919 5919 5919 5919 5918 5918 5917 5916 5915 5914 5913 5912 5911 5910 5909 5908 5907 5907 5907 5907 5907 5906 5906 5907 5907
5925 5926 5927 5926 5925 5925 5924 5924 5923 5923 5922 5922 5922 5922 5921 5921 5919 5918 5919 5919 5919 5919 5919 5920 5920 5920 5920 5920 5920 5920 5919 5918 5917 5916 5915 5913 5912 5911 5910 5909 5908 5907 5907 5907 5907 5907 5906 5907 5907
5927 5927 5928 5927 5925 5925 5924 5924 5924 5924 5923 5923 5922 5922 5922 5921 5919 5919 5919 5919 5919 5920 5920 5920 5921 5921 5921 5921 5921 5921 5920 5920 5919 5918 5916 5915 5914 5913 5912 5911 5910 5908 5908 5907 5907 5906 5906 5906 5907
5927 5928 5928 5926 5926 5925 5925 5924 5925 5925 5924 5923 5922 5922 5922 5922 5920 5919 5919 5920 5920 5920 5921 5921 5921 5921 5922 5922 5922 5922 5921 5921 5920 5919 5918 5916 5915 5914 5913 5912 5911 5910 5908 5907 5907 5906 5906 5906 5906
5927 5927 5927 5926 5925 5925 5925 5924 5925 5925 5924 5923 5923 5923 5922 5922 5920 5919 5919 5920 5920 5920 5921 5921 5921 5922 5922 5922 5922 5922 5922 5921 5920 5919 5918 5917 5916 5915 5914 5913 5912 5911 5909 5908 5907 5906 5906 5906 5906
5927 5927 5926 5926 5925 5924 5924 5924 5924 5924 5924 5924 5924 5923 5922 5923 5921 5919 5919 5920 5920 5920 5920 5921 5921 5922 5922 5922 5922 5922 5922 5921 5920 5919 5918 5917 5916 5916 5915 5914 5912 5911 5910 5909 5908 5907 5906 5906 5905
5926 5927 5925 5925 5924 5924 5924 5924 5923 5924 5924 5924 5924 5923 5923 5923 5922 5920 5919 5919 5920 5920 5920 5920 5920 5921 5921 5921 5921 5921 5921 5921 5920 5919 5918 5917 5916 5915 5914 5914 5913 5912 5910 5909 5908 5907 5906 5906 5905
5925 5926 5925 5924 5924 5924 5923 5923 5922 5923 5923 5923 5923 5923 5922 5922 5922 5921 5919 5919 5919 5919 5919 5919 5920 5920 5920 5920 5920 5920 5920 5920 5919 5918 5917 5916 5915 5915 5914 5913 5912 5911 5910 5909 5909 5908 5907 5906 5905
5924 5924 5924 5924 5923 5923 5922 5922 5921 5921 5921 5922 5921 5921 5921 5921 5921 5921 5920 5919 5918 5919 5919 5919 5918 5918 5918 5919 5919 5919 5919 5918 5918 5917 5916 5915 5914 5913 5912 5912 5911 5910 5910 5909 5908 5908 5907 5906 5905
5922 5923 5922 5922 5921 5921 5920 5920 5919 5919 5919 5919 5920 5919 5919 5919 5919 5920 5920 5919 5918 5917 5917 5917 5917 5917 5917 5917 5917 5917 5917 5916 5916 5915 5914 5913 5912 5911 5911 5910 5909 5909 5908 5908 5907 5907 5906 5906 5905
5921 5920 5920 5920 5919 5918 5918 5917 5917 5916 5916 5916 5916 5916 5917 5916 5916 5917 5917 5918 5918 5917 5916 5915 5914 5914 5914 5914 5914 5914 5914 5914 5913 5913 5912 5911 5909 5909 5908 5908 5907 5907 5906 5906 5905 5905 5905 5905 5904
5918 5918 5917 5916 5915 5914 5914 5914 5914 5913 5913 5912 5912 5912 5912 5912 5912 5913 5913 5914 5915 5915 5915 5914 5913 5912 5912 5911 5911 5911 5911 5911 5910 5910 5909 5908 5907 5906 5905 5905 5904 5904 5904 5903 5903 5903 5903 5903 5903
5914 5914 5913 5911 5910 5910 5910 5910 5910 5909 5909 5908 5907 5907 5907 5906 5907 5907 5907 5908 5909 5910 5910 5910 5910 5909 5908 5908 5908 5907 5907 5907 5906 5906 5906 5905 5904 5903 5902 5901 5901 5901 5901 5901 5900 5900 5900 5900 5900
5910 5910 5909 5908 5907 5907 5907 5906 5905 5904 5904 5903 5902 5901 5900 5900 5901 5901 5901 5902 5902 5904 5904 5905 5905 5905 5904 5904 5904 5903 5903 5902 5902 5902 5901 5901 5901 5900 5899 5898 5897 5897 5896 5897 5897 5896 5896 5897 5897
5906 5906 5905 5903 5902 5901 5902 5900 5899 5898 5897 5896 5895 5894 5894 5894 5893 5894 5894 5894 5895 5895 5896 5897 5898 5898 5899 5899 5899 5899 5898 5898 5897 5897 5897 5896 5896 5896 5895 5894 5894 5893 5892 5892 5892 5892 5892 5893 5893
5901 5900 5898 5897 5895 5895 5894 5892 5892 5891 5890 5888 5887 5886 5886 5886 5886 5886 5886 5886 5887 5888 5888 5889 5889 5891 5892 5892 5893 5893 5893 5892 5892 5891 5892 5891 5891 5890 5890 5890 5889 5889 5888 5888 5888 5888 5888 5888 5889
5895 5893 5891 5890 5889 5887 5886 5884 5883 5882 5881 5879 5878 5877 5877 5877 5877 5878 5878 5879 5879 5879 5880 5880 5881 5883 5884 5884 5885 5886 5887 5886 5886 5885 5885 5886 5886 5885 5885 5884 5884 5883 5883 5883 5883 5883 5883 5884 5884
5889 5887 5885 5883 5881 5880 5877 5876 5874 5873 5871 5870 5869 5869 5868 5868 5868 5869 5869 5869 5869 5870 5870 5871 5872 5874 5875 5876 5877 5878 5879 5879 5879 5878 5878 5879 5879 5879 5878 5878 5878 5878 5877 5877 5877 5878 5878 5878 5879
5883 5881 5879 5877 5874 5871 5869 5867 5865 5863 5862 5860 5859 5858 5858 5857 5858 5858 5858 5858 5858 5859 5860 5861 5862 5864 5866 5868 5869 5869 5870 5870 5870 5871 5870 5870 5871 5871 5871 5871 5871 5871 5871 5871 5871 5871 5871 5872 5873
5877 5875 5873 5871 5867 5863 5860 5858 5856 5853 5851 5849 5848 5846 5846 5846 5846 5846 5847 5847 5848 5848 5849 5851 5852 5854 5856 5858 5859 5860 5861 5862 5861 5862 5862 5862 5861 5862 5863 5863 5863 5864 5864 5865 5865 5865 5865 5865 5866
5872 5869 5866 5863 5860 5857 5853 5849 5846 5843 5841 5838 5836 5835 5834 5833 5833 5834 5835 5836 5837 5838 5839 5841 5842 5844 5846 5848 5850 5851 5853 5853 5854 5853 5853 5853 5852 5852 5853 5854 5855 5856 5856 5857 5857 5858 5858 5858 5859
5866 5862 5859 5856 5852 5848 5844 5840 5837 5834 5831 5828 5826 5824 5822 5821 5821 5822 5823 5824 5826 5827 5829 5831 5833 5834 5836 5838 5840 5842 5844 5845 5845 5844 5844 5843 5843 5843 5844 5845 5846 5847 5848 5848 5849 5850 5850 5850 5851
5861 5857 5853 5849 5845 5840 5836 5833 5829 5825 5822 5820 5817 5814 5813 5811 5811 5811 5812 5814 5816 5818 5819 5821 5823 5825 5827 5829 5831 5833 5835 5836 5836 5837 5837 5836 5836 5836 5835 5835 5837 5838 5839 5840 5840 5841 5842 5842 5843
5856 5852 5848 5843 5838 5834 5830 5825 5822 5818 5815 5812 5810 5807 5804 5803 5801 5801 5802 5804 5806 5809 5811 5813 5814 5816 5818 5820 5822 5824 5826 5828 5829 5829 5830 5829 5829 5829 5828 5828 5828 5829 5830 5831 5832 5833 5833 5833 5834
5852 5848 5844 5839 5834 5829 5825 5821 5817 5813 5809 5806 5803 5799 5797 5796 5795 5794 5794 5796 5798 5801 5803 5805 5806 5808 5810 5812 5814 5816 5818 5820 5821 5821 5822 5821 5821 5821 5820 5821 5821 5822 5823 5823 5824 5824 5824 5825 5826
5850 5845 5841 5836 5831 5826 5822 5818 5814 5808 5805 5802 5798 5795 5793 5792 5790 5789 5789 5790 5791 5793 5795 5797 5799 5801 5802 5805 5807 5808 5810 5811 5812 5813 5813 5813 5813 5812 5811 5812 5813 5813 5814 5814 5815 5816 5816 5817 5817
5849 5843 5839 5834 5829 5824 5821 5816 5812 5807 5803 5799 5796 5794 5792 5789 5787 5786 5785 5785 5785 5787 5788 5790 5792 5794 5796 5798 5800 5801 5802 5803 5804 5804 5804 5804 5804 5803 5803 5803 5804 5805 5805 5806 5807 5807 5807 5808 5809
5848 5844 5839 5834 5829 5824 5820 5818 5811 5806 5802 5798 5796 5793 5791 5788 5786 5784 5783 5782 5782 5783 5784 5786 5787 5789 5791 5793 5795 5796 5796 5797 5797 5798 5797 5797 5797 5796 5796 5796 5797 5797 5798 5798 5799 5800 5800 5801 5801
5849 5844 5840 5835 5830 5826 5822 5821 5812 5808 5804 5800 5797 5794 5791 5789 5786 5785 5783 5782 5781 5781 5782 5783 5784 5786 5788 5790 5791 5791 5792 5792 5792 5792 5792 5791 5791 5790 5790 5790 5791 5791 5791 5792 5793 5793 5793 5794 5795